This is the latest recevied weather packets stored in our database for station/object KC9VAF. If no packets are shown the sender has not sent any weather packets the latest 1 day(s).
| Time | Temp. | Humidity | Pressure | Rain* | Wind** | Luminosity | Snow |
|---|---|---|---|---|---|---|---|
| 1777974894 | 8.33° C | 49% | 1007 hPa | 0 mm | 0 m/s | 0 W/m² | - |
| 1777974590 | 8.33° C | 49% | 1007.2 hPa | 0 mm | 0 m/s | 0 W/m² | - |
| 1777974287 | 8.33° C | 49% | 1007.3 hPa | 0 mm | 0.45 m/s, 64° | 0 W/m² | - |
| 1777973983 | 8.33° C | 50% | 1007.1 hPa | 0 mm | 1.34 m/s, 14° | 0 W/m² | - |
| 1777973680 | 8.33° C | 51% | 1007.3 hPa | 0 mm | 0.45 m/s, 29° | 0 W/m² | - |
| 1777973377 | 8.33° C | 50% | 1007.3 hPa | 0 mm | 0.45 m/s, 81° | 0 W/m² | - |
| 1777973075 | 8.33° C | 51% | 1007.4 hPa | 0 mm | 0.45 m/s, 21° | 0 W/m² | - |
| 1777972772 | 8.33° C | 51% | 1007.2 hPa | 0 mm | 0.45 m/s, 8° | 0 W/m² | - |
| 1777972470 | 8.33° C | 51% | 1007 hPa | 0 mm | 0.45 m/s, 47° | 0 W/m² | - |
| 1777972168 | 8.33° C | 52% | 1007 hPa | 0 mm | 0.45 m/s, 48° | 0 W/m² | - |
| 1777971866 | 8.89° C | 50% | 1006.6 hPa | 0 mm | 0.45 m/s, 2° | 0 W/m² | - |
| 1777971563 | 8.89° C | 50% | 1006.5 hPa | 0 mm | 1.34 m/s, 330° | 0 W/m² | - |
| 1777971261 | 8.89° C | 50% | 1006.3 hPa | 0 mm | 1.34 m/s, 10° | 0 W/m² | - |
| 1777970958 | 8.89° C | 50% | 1006.2 hPa | 0 mm | 0.45 m/s, 50° | 0 W/m² | - |
| 1777970656 | 8.89° C | 51% | 1005.7 hPa | 0 mm | 0 m/s | 0 W/m² | - |
| 1777970354 | 8.89° C | 51% | 1006 hPa | 0 mm | 0.45 m/s, 25° | 0 W/m² | - |
| 1777970051 | 8.89° C | 51% | 1005.9 hPa | 0 mm | 0.89 m/s, 29° | 0 W/m² | - |
| 1777969747 | 8.89° C | 50% | 1005.9 hPa | 0 mm | 0.89 m/s, 75° | 0 W/m² | - |
| 1777969443 | 9.44° C | 51% | 1006 hPa | 0 mm | 1.34 m/s, 281° | 0 W/m² | - |
| 1777969140 | 9.44° C | 51% | 1005.6 hPa | 0 mm | 0.45 m/s, 80° | 0 W/m² | - |
| 1777968837 | 9.44° C | 52% | 1005.7 hPa | 0 mm | 0.45 m/s, 55° | 0 W/m² | - |
| 1777968534 | 9.44° C | 51% | 1005.4 hPa | 0 mm | 1.34 m/s, 52° | 0 W/m² | - |
| 1777968230 | 9.44° C | 50% | 1005 hPa | 0 mm | 1.34 m/s, 15° | 0 W/m² | - |
| 1777967925 | 10° C | 50% | 1005 hPa | 0 mm | 1.34 m/s, 61° | 0 W/m² | - |
| 1777967622 | 10° C | 50% | 1004.9 hPa | 0 mm | 0.45 m/s, 23° | 0 W/m² | - |
* Rain latest hour (hover to see other rain measurements)
** Current wind speed in m/s (hover to see current wind gust speed)